Theta_e
305 303 304 303 304 304 303 296 298 300 303 304 302 303 303 300 302 303 302 303 303 297 296 297 298 300 301 301 306 304 304 304 303 305 306 304 304 303 303 302 305 303 303 305 303 306 303 302 304 304 300 302 303 303
306 304 304 303 303 304 303 296 298 299 301 304 303 303 303 302 300 302 303 303 302 300 298 298 298 299 299 299 300 300 304 303 302 304 301 300 304 300 300 303 300 305 302 302 303 303 299 300 302 301 299 301 302 302
307 304 304 304 303 304 303 299 297 298 299 303 304 303 303 303 299 301 302 302 301 296 296 296 297 298 298 298 299 303 300 300 301 298 301 301 305 300 304 300 302 301 299 303 303 300 299 300 300 301 299 300 300 300
308 305 304 304 303 304 303 302 295 298 299 301 304 304 304 304 301 300 301 301 303 299 301 300 297 297 299 298 298 298 298 298 298 297 300 301 304 299 301 300 300 300 300 302 300 300 299 299 298 300 299 298 298 297
308 307 304 304 303 304 303 303 296 297 298 301 303 304 304 304 302 300 299 299 301 302 301 299 297 298 298 298 298 297 297 297 298 300 299 302 298 298 296 296 297 298 301 302 302 299 299 299 299 297 297 297 296 296
309 307 306 305 303 303 304 303 298 297 298 299 302 303 304 303 302 302 297 300 297 300 296 300 296 296 297 297 297 297 297 295 296 298 299 297 295 299 299 299 298 296 297 298 301 298 298 298 298 296 297 296 295 294
309 308 305 304 303 303 304 303 299 296 297 299 301 303 301 301 301 300 298 298 296 299 296 297 296 295 296 296 295 295 295 294 296 297 297 297 297 297 297 300 300 298 297 297 297 297 300 297 298 295 295 295 296 293
309 309 306 305 303 303 304 303 300 296 297 298 300 302 299 299 299 299 298 297 296 298 294 293 293 295 295 295 297 292 295 293 294 296 295 296 295 295 299 298 297 297 297 297 295 295 297 295 293 293 292 291 291 290
309 309 308 306 304 303 304 303 301 296 298 300 301 301 299 299 298 299 298 297 297 295 293 290 292 294 293 294 294 294 293 296 293 297 296 296 296 297 300 298 298 298 298 298 294 294 294 295 293 292 291 290 290 289
309 308 308 307 304 303 304 304 301 296 300 302 301 299 296 298 298 297 296 294 290 291 290 292 289 295 293 293 296 295 294 296 293 297 294 296 297 297 297 296 295 295 295 293 294 294 294 294 292 291 291 290 290 287
308 308 308 307 304 303 303 303 300 299 302 302 298 295 297 296 296 291 293 293 293 294 293 290 290 293 291 295 296 295 290 290 293 294 297 296 297 295 295 294 292 290 291 293 294 295 293 293 293 291 291 289 287 287
307 307 307 307 304 303 303 303 298 301 302 301 298 296 296 292 289 291 289 290 292 296 291 293 293 292 292 291 296 294 293 290 294 290 293 295 294 293 293 292 291 290 291 292 293 293 291 292 292 291 289 287 287 288
306 306 307 307 305 303 303 302 300 303 301 298 295 290 291 289 291 290 295 289 286 289 289 290 292 292 291 293 293 293 294 296 291 289 294 293 293 292 290 290 291 291 291 291 292 292 291 290 291 290 286 287 287 286
306 306 306 306 305 303 303 300 303 301 299 295 294 293 292 288 291 292 291 289 289 288 290 290 290 293 292 293 293 291 295 293 289 292 294 291 291 291 290 290 291 291 289 287 288 288 287 287 287 288 288 287 286 285
305 305 306 305 305 303 303 300 302 298 296 296 292 295 291 291 285 283 281 285 286 289 289 290 290 291 290 292 294 291 290 290 292 294 292 289 290 291 290 290 290 290 288 286 285 284 284 286 285 286 287 286 286 285
305 304 305 305 305 304 303 300 299 297 295 292 287 289 288 289 291 289 282 284 285 289 286 289 289 290 291 292 291 293 291 292 294 288 289 286 291 290 289 289 289 289 288 287 286 286 286 285 284 285 285 285 284 284
304 305 305 305 304 303 301 299 297 296 296 299 295 290 292 293 296 292 289 289 288 291 290 288 289 293 290 289 293 291 292 292 290 287 284 288 291 290 288 288 289 289 288 287 287 286 286 286 286 284 281 283 283 283
303 304 304 305 303 301 299 294 294 295 298 298 297 293 293 293 293 291 289 289 291 291 289 289 287 288 292 296 296 292 289 286 284 286 287 290 289 288 288 288 289 290 289 288 287 287 286 284 282 282 284 283 282 282
303 304 303 304 301 295 293 291 293 298 298 297 293 289 293 293 292 291 289 291 289 289 288 284 284 290 295 294 294 286 283 287 291 290 288 288 288 288 288 289 289 289 288 288 285 285 285 285 285 284 284 283 281 281
301 302 304 302 299 292 293 294 292 296 298 298 290 291 292 293 291 291 290 291 290 288 285 286 292 295 294 293 289 288 286 288 289 290 290 287 287 287 286 286 287 288 287 287 287 286 285 283 284 284 284 283 281 281
301 302 303 299 295 292 293 294 294 296 294 296 292 292 292 289 291 291 292 291 293 288 288 291 295 296 292 289 289 289 288 288 289 290 292 293 287 287 287 287 288 286 284 284 284 284 285 284 284 284 283 282 282 281
302 302 299 294 292 291 294 292 296 294 294 292 294 292 290 290 291 291 291 292 294 296 291 296 296 295 295 292 292 289 292 291 290 289 290 289 287 283 283 284 283 285 285 286 285 285 285 284 284 284 282 282 281 279
299 295 292 291 294 293 295 292 294 292 293 293 292 293 289 286 288 290 292 292 294 291 295 296 296 296 295 295 293 291 291 288 288 287 288 289 290 289 288 288 286 286 285 285 285 285 284 285 284 282 282 280 279 278
294 292 295 295 295 295 292 294 291 291 289 292 293 295 289 283 288 291 293 290 288 288 294 295 295 295 294 286 292 294 293 290 289 290 291 289 287 287 287 287 287 287 287 287 284 284 284 283 283 281 280 279 278 277
296 294 295 296 294 293 293 291 290 290 289 287 290 291 289 289 291 291 291 287 287 290 293 295 294 295 296 295 295 293 293 292 290 290 291 289 288 287 285 285 286 286 286 285 282 281 281 282 281 279 279 278 277 276
296 295 295 296 292 291 289 287 288 288 286 287 290 286 284 288 288 289 287 288 293 296 295 295 295 293 292 293 294 293 292 292 291 287 290 290 287 286 286 283 282 282 284 286 284 281 280 280 279 278 277 278 278 277
297 296 295 292 289 287 287 286 286 287 289 292 285 284 289 292 290 289 286 289 293 293 295 295 293 293 293 291 291 292 292 292 291 290 291 290 290 289 288 283 283 286 287 285 284 283 281 279 279 279 278 277 278 278
295 295 295 291 287 282 284 284 285 289 290 288 289 287 290 291 292 290 290 290 291 292 294 294 293 292 292 291 292 292 289 289 289 288 287 287 287 287 288 287 287 287 287 286 284 283 282 281 280 279 278 277 277 278
294 290 290 291 287 286 286 287 288 289 289 289 292 290 288 286 286 289 288 288 288 288 281 283 287 290 290 289 289 290 290 287 282 283 283 285 278 285 286 286 286 286 285 283 282 283 284 283 282 281 279 279 278 278
292 290 291 289 290 289 287 287 285 283 285 289 290 286 285 282 284 288 286 282 284 285 289 289 289 286 286 284 285 282 286 287 287 287 286 287 285 288 287 285 285 284 283 282 282 282 282 281 279 277 278 277 276 275
290 290 288 289 288 281 277 276 279 286 280 283 283 289 291 283 284 288 286 287 288 288 285 282 279 285 283 280 281 283 284 287 287 288 288 287 288 288 286 285 284 283 282 281 281 281 280 277 277 276 275 274 274 274
284 288 288 286 282 274 273 278 283 285 280 284 283 276 279 282 285 285 288 284 281 279 285 288 285 287 291 291 290 291 292 291 292 290 287 285 286 287 286 284 283 282 281 281 281 279 278 276 275 275 274 274 274 274
284 284 280 282 284 283 280 282 284 283 282 282 281 281 284 287 289 286 287 288 289 290 289 289 290 291 291 291 291 291 290 289 288 288 288 285 285 286 285 283 282 281 280 280 279 278 277 277 275 275 275 274 274 274
Wind_Speed
13 12 13 13 14 12 11 9 7 6 5 7 6 10 12 12 1 2 5 4 2 3 3 6 4 2 1 0 2 3 2 3 3 3 2 1 1 2 3 4 2 2 2 3 1 2 6 5 3 6 4 0 3 2
13 13 13 14 14 13 13 11 7 6 4 7 8 8 11 12 6 4 3 5 4 4 2 6 8 8 8 4 3 1 2 1 3 3 1 1 2 1 3 4 1 3 5 3 7 5 4 7 4 4 4 4 4 4
14 14 13 15 14 14 13 12 9 7 6 5 7 8 10 9 11 3 1 6 2 3 2 1 5 10 9 8 8 4 2 2 1 3 2 1 4 3 3 5 2 4 4 4 1 3 7 7 4 4 6 5 4 4
17 16 14 15 14 15 14 12 9 8 7 6 4 6 7 7 7 5 1 2 2 3 2 4 2 5 7 10 9 6 3 3 4 2 2 3 3 4 4 4 5 5 6 4 6 8 6 8 7 6 5 4 4 3
20 18 17 16 16 17 14 14 10 9 8 5 4 5 7 7 5 4 3 2 1 2 3 3 2 6 7 8 8 6 5 2 2 2 2 4 2 2 2 2 4 6 7 6 6 7 3 5 2 7 8 7 7 6
22 20 17 17 17 19 16 14 12 9 9 7 7 9 6 6 7 3 3 2 3 1 2 3 2 2 5 5 5 6 5 1 1 2 3 2 2 1 2 4 7 7 4 5 4 1 2 2 1 3 6 6 6 7
25 22 20 18 19 20 18 15 12 10 9 8 6 5 4 5 6 3 3 2 3 1 2 3 3 2 2 3 1 1 2 1 2 2 3 1 2 3 2 4 3 6 8 6 2 5 1 4 4 6 5 6 9 6
28 26 24 21 20 21 19 16 12 10 9 7 7 6 5 4 4 6 7 3 3 2 3 1 4 3 2 2 2 1 2 1 2 3 1 2 1 1 5 7 6 6 5 5 8 6 2 4 6 6 6 7 6 6
30 29 28 25 22 22 19 16 13 10 8 6 6 5 6 5 3 2 4 5 5 2 2 2 4 4 1 1 1 1 1 1 1 3 3 3 2 5 9 6 5 4 5 3 4 3 3 4 6 7 7 7 7 6
31 31 31 28 24 25 21 17 12 9 6 6 6 3 2 2 2 2 1 1 2 1 1 3 1 2 2 1 0 1 1 2 2 3 1 3 4 9 11 10 9 10 8 8 6 3 4 4 7 7 7 6 6 6
31 31 33 31 28 26 23 19 13 11 8 7 4 3 4 2 1 3 2 2 2 2 4 2 3 3 2 3 3 2 2 1 1 3 2 3 4 5 4 6 6 7 8 13 6 4 8 5 8 7 5 6 9 11
30 31 32 34 31 29 26 22 17 20 10 11 4 3 2 2 3 1 3 3 4 6 4 5 4 3 2 2 2 1 2 2 5 1 1 3 4 7 5 6 6 6 5 7 5 5 7 8 12 10 8 9 12 12
28 30 31 35 35 32 28 25 22 22 17 9 1 3 2 2 1 7 7 4 2 3 4 4 3 4 2 1 3 2 3 5 1 1 4 5 4 5 6 5 4 1 6 7 5 5 9 8 14 16 12 14 14 11
25 26 33 36 37 34 31 27 33 26 11 3 5 5 6 4 6 5 5 4 3 2 4 2 3 4 2 3 3 3 3 2 1 2 6 3 6 4 4 3 2 4 7 7 8 9 9 11 11 14 17 18 16 13
23 25 31 38 39 35 34 31 36 28 7 4 4 6 8 4 1 2 3 2 1 3 3 3 3 2 2 4 3 3 2 5 6 5 3 4 3 3 4 2 5 5 5 5 6 6 9 14 14 14 14 14 13 11
21 23 35 39 41 37 35 34 21 12 2 2 3 2 3 1 2 2 2 2 3 4 2 2 3 2 3 4 4 8 6 7 4 4 4 2 3 3 4 4 6 6 6 6 9 10 13 15 14 14 14 12 11 10
21 13 18 30 41 42 40 22 7 5 5 5 5 3 3 0 3 3 4 4 7 3 3 3 4 8 2 2 4 5 6 4 4 3 2 4 4 3 4 5 5 7 7 10 9 12 15 15 13 14 8 13 11 10
21 15 18 28 44 37 21 9 6 6 9 6 4 4 3 2 3 2 3 4 5 4 5 5 4 3 5 5 4 4 4 3 3 3 3 4 4 4 5 5 7 10 11 13 15 15 16 18 15 12 17 16 14 11
24 20 22 32 40 11 5 8 6 5 7 3 3 1 3 2 2 3 3 7 1 3 5 3 3 4 6 4 4 3 3 3 3 4 4 5 8 7 8 10 10 12 15 17 18 16 19 24 18 19 18 19 16 16
22 26 25 46 43 7 5 3 9 3 5 4 2 3 3 2 4 4 5 6 3 2 2 4 7 6 4 3 4 3 2 3 3 1 3 4 10 11 11 12 10 16 16 16 18 17 17 15 17 18 22 22 19 16
21 24 23 39 6 6 4 4 4 4 5 3 4 5 2 2 2 4 5 5 5 4 4 6 8 10 5 4 8 7 5 5 5 5 5 7 5 13 12 16 16 13 9 9 6 11 18 17 21 23 22 21 18 14
14 17 12 14 2 5 2 5 3 3 3 2 5 3 3 3 3 4 5 5 6 9 6 10 11 11 11 10 9 15 17 15 17 11 10 8 4 2 4 10 9 7 12 14 16 14 18 22 25 26 24 19 16 15
18 12 6 4 3 5 3 10 3 5 4 7 5 5 3 3 3 6 4 6 6 4 9 13 18 23 15 18 11 13 19 16 6 7 10 12 16 17 15 17 19 11 7 14 22 20 21 25 23 25 23 19 19 17
9 6 6 8 5 5 4 5 3 3 3 4 5 5 3 3 3 2 6 4 3 2 9 17 13 13 10 2 11 14 19 18 15 16 19 11 5 10 17 18 20 24 22 16 23 22 23 23 24 23 26 24 21 19
5 6 5 5 3 5 6 5 4 4 5 4 5 3 3 4 4 5 5 3 3 5 11 12 11 12 13 10 9 10 21 19 8 9 16 21 17 12 10 16 20 21 21 19 16 18 20 25 24 25 26 23 21 20
7 8 9 10 5 7 7 6 8 6 4 4 6 3 2 4 4 8 4 4 10 12 11 11 11 8 8 11 10 7 13 19 20 6 14 19 19 9 7 4 5 9 22 25 24 21 22 24 25 27 23 22 20 20
6 6 4 2 3 3 3 2 3 4 7 7 5 5 4 5 8 5 3 5 6 6 16 18 14 10 10 7 18 21 13 13 15 11 9 11 16 19 20 10 8 14 17 29 30 31 30 28 26 25 22 22 23 24
4 7 10 7 3 1 5 4 6 9 6 5 8 7 11 10 7 4 5 4 12 9 14 19 23 22 17 19 17 11 14 15 15 12 11 14 17 17 21 23 22 17 14 23 31 30 32 33 29 28 27 24 25 23
5 4 5 5 3 4 6 8 7 5 4 7 10 6 5 4 3 3 3 6 6 9 1 3 10 17 15 11 10 13 12 18 8 6 6 6 3 12 18 19 18 17 15 18 21 30 34 34 32 30 27 25 25 23
5 6 5 7 7 8 6 6 4 3 3 5 3 1 2 3 5 10 9 8 5 5 11 14 15 17 6 6 4 8 20 24 26 11 6 8 6 6 11 16 18 19 19 25 25 22 19 21 20 20 22 22 23 23
7 5 4 5 5 4 3 2 2 1 1 2 1 3 6 2 4 9 18 23 17 10 7 4 5 15 10 5 5 5 6 23 31 31 30 20 7 6 13 19 21 22 25 27 29 27 26 26 25 26 25 24 23 22
4 8 7 7 4 3 1 3 4 4 2 2 3 1 2 1 4 3 11 20 10 4 13 15 5 7 30 31 27 26 25 17 14 22 30 26 18 13 14 19 22 24 27 28 27 28 29 27 25 24 24 24 23 20
3 2 2 3 3 2 2 3 2 1 1 2 3 4 4 5 8 4 7 26 23 24 22 26 34 32 27 24 24 26 26 24 16 12 13 21 21 19 19 21 25 27 30 28 28 30 28 26 25 24 24 24 22 19
Wind_Direction
279 275 275 285 287 297 313 315 307 316 279 299 310 351 8 10 231 254 122 114 167 144 220 186 188 218 333 229 151 285 21 335 27 66 114 246 216 267 320 247 235 222 158 219 127 244 294 157 81 168 216 218 168 151
273 266 263 271 278 284 298 308 296 294 305 273 287 314 344 357 344 237 194 150 141 108 180 198 216 216 198 194 167 353 209 220 217 79 282 131 249 230 188 278 272 263 191 207 186 221 237 211 205 214 176 168 198 183
267 255 260 264 270 273 282 300 294 285 287 276 275 294 321 350 1 290 198 163 137 100 350 51 229 211 217 213 190 142 246 185 182 159 165 261 266 126 235 244 245 248 175 216 3 250 231 235 237 213 192 203 176 176
259 254 254 256 262 264 271 288 289 273 275 277 281 276 302 322 352 12 247 212 130 110 149 269 197 226 216 201 200 203 152 143 121 120 169 192 215 170 228 244 213 207 151 208 263 281 282 257 219 193 181 155 139 122
256 252 252 250 255 260 261 276 283 267 262 253 244 265 269 292 310 332 8 74 220 174 218 254 253 215 200 205 212 212 201 147 155 142 167 226 226 138 228 318 244 185 199 177 227 227 174 258 243 162 166 183 180 151
253 249 248 241 246 257 255 264 276 259 254 246 253 251 240 275 287 312 344 210 2 356 69 307 336 150 168 212 220 196 198 172 128 178 231 260 284 173 254 252 255 219 220 197 222 180 171 8 104 138 166 173 169 167
249 247 244 234 237 248 252 255 266 257 245 243 245 256 255 250 243 214 202 289 333 173 81 318 316 316 145 137 175 147 131 158 164 232 235 216 264 177 244 245 284 261 246 257 218 122 196 207 217 173 148 150 154 138
248 245 242 236 233 238 246 251 258 254 240 237 239 239 249 276 221 228 229 241 305 119 92 169 273 333 181 160 195 264 166 145 212 216 222 191 49 131 261 251 277 269 292 249 212 206 204 131 120 128 124 131 132 147
250 244 241 237 230 230 234 243 252 246 231 221 216 249 275 234 231 211 212 230 227 215 204 135 162 248 9 71 89 46 69 307 337 242 230 154 201 221 228 233 271 261 232 278 132 126 140 168 160 157 148 160 159 175
251 244 239 236 225 227 226 224 235 233 217 195 178 202 279 234 246 261 209 42 25 315 50 214 124 189 114 64 64 73 21 225 257 254 37 215 254 263 265 252 258 257 221 157 139 186 181 191 187 185 193 179 175 174
257 246 238 234 225 222 221 218 208 180 187 170 210 224 150 151 162 19 262 172 207 250 179 207 188 147 205 133 184 172 201 314 334 252 183 268 271 247 222 261 266 263 233 204 194 193 190 171 182 176 179 182 176 172
261 254 242 233 223 219 216 210 197 186 179 190 181 136 153 80 51 95 231 315 214 221 182 151 181 171 149 147 113 149 154 46 248 330 65 264 251 248 259 281 288 303 226 178 174 167 171 172 171 167 169 172 176 178
261 256 248 235 222 217 214 203 194 187 168 150 153 58 61 255 62 190 212 246 263 191 184 165 141 149 123 109 88 113 136 220 63 29 237 234 262 264 267 284 265 128 145 139 139 157 161 155 167 166 164 176 170 166
262 256 250 238 220 214 211 194 183 173 167 154 146 238 189 232 240 192 188 199 237 93 139 105 114 137 151 110 135 125 222 80 352 257 236 244 239 264 288 254 247 213 176 163 165 166 165 161 162 169 173 170 168 173
270 264 252 235 219 210 208 186 183 176 173 185 150 219 212 217 272 247 204 128 261 138 111 86 33 62 122 118 165 91 32 248 214 230 229 232 230 257 279 244 228 235 210 192 174 165 167 162 157 157 166 170 176 175
268 276 238 224 215 205 199 182 173 175 199 215 241 233 191 122 193 210 206 173 188 135 63 52 119 67 218 144 131 206 162 224 241 215 221 198 217 236 247 235 217 209 208 219 193 181 173 174 173 171 170 178 182 190
267 247 244 229 209 198 181 167 143 162 211 223 237 243 170 135 167 177 177 188 150 115 174 130 160 207 115 121 219 183 212 221 213 228 201 210 224 252 250 243 220 209 199 202 208 201 193 188 173 162 166 190 193 201
253 250 252 221 195 171 160 153 163 186 224 221 197 200 190 181 142 169 215 165 149 161 133 206 136 162 212 214 224 225 225 262 236 219 200 220 227 240 234 244 231 211 205 207 207 205 194 182 181 196 193 184 181 194
249 254 242 215 173 141 153 183 190 204 210 180 178 202 162 171 181 117 149 190 88 118 121 119 173 208 225 216 232 238 223 208 206 226 225 221 227 222 230 235 237 220 207 195 193 195 203 204 204 203 196 186 190 200
261 251 250 187 170 131 166 199 180 207 188 193 127 168 184 181 154 152 149 177 160 162 160 206 214 222 197 207 212 221 220 183 162 272 284 249 234 225 226 217 218 230 223 216 211 201 195 199 212 204 200 200 195 200
258 246 235 169 171 148 170 164 188 207 142 183 148 147 171 110 159 166 167 159 189 218 238 229 243 248 199 203 211 200 201 176 205 197 252 283 252 219 230 229 228 219 201 203 198 196 196 200 199 200 198 205 208 210
244 216 157 176 135 178 198 194 169 143 135 118 143 142 161 184 180 189 141 197 228 224 209 232 239 242 244 231 234 212 236 229 230 234 247 238 244 236 231 221 184 211 213 213 203 198 201 200 203 198 197 199 195 197
177 136 133 139 154 187 193 147 144 164 155 174 142 165 212 215 212 137 215 217 240 184 213 229 242 244 248 254 249 242 235 218 225 231 241 239 243 248 238 228 217 209 214 223 209 199 192 201 190 191 192 187 190 191
139 169 184 176 169 170 158 183 142 134 121 169 171 193 201 191 144 226 251 234 215 193 208 224 227 243 243 222 243 251 251 223 236 254 246 237 231 244 233 238 231 228 221 225 198 194 189 180 178 178 183 184 187 187
186 209 181 184 162 140 165 151 165 170 163 175 165 169 172 167 192 229 241 252 211 211 219 221 220 224 230 236 243 245 247 220 214 235 251 223 232 249 244 236 239 241 228 195 176 179 175 174 175 176 180 183 186 189
213 198 182 185 162 171 180 158 181 162 136 142 202 131 145 167 197 244 224 206 220 226 220 216 215 212 227 227 240 238 244 225 213 206 254 233 215 210 230 211 228 244 216 215 191 177 174 174 174 178 182 189 191 188
207 184 183 176 169 128 126 110 134 147 173 181 161 160 168 195 231 248 252 227 221 217 216 208 190 199 223 222 224 230 226 206 198 211 235 243 240 238 227 206 217 235 221 210 202 189 179 178 179 180 180 186 188 196
200 188 194 168 172 174 151 167 167 186 176 167 155 182 184 202 220 225 218 261 238 244 217 208 206 205 208 218 217 194 198 208 214 230 255 265 259 246 240 240 245 248 239 214 205 197 189 185 180 180 182 181 187 196
200 166 131 166 142 201 216 192 205 216 164 169 176 184 225 224 223 222 228 226 218 188 110 170 208 203 207 211 204 208 198 181 154 172 223 248 277 251 233 229 222 218 213 196 192 202 198 193 191 191 187 187 189 187
204 164 163 168 176 216 227 189 206 199 179 176 182 19 319 273 241 231 209 186 162 194 214 206 185 173 184 178 198 217 218 216 211 199 206 232 232 245 201 193 193 194 187 175 169 166 161 158 150 158 166 168 172 178
144 157 145 178 225 230 216 266 309 107 81 184 261 212 233 279 290 239 226 230 225 199 175 200 193 200 190 188 187 208 252 236 230 231 234 236 241 223 196 192 189 184 177 169 161 157 153 154 159 158 162 166 174 181
151 182 173 196 239 273 68 171 182 188 210 172 243 159 334 56 242 262 218 203 180 198 223 219 194 228 230 233 238 240 243 250 233 238 232 226 220 210 199 190 187 183 177 167 163 162 167 158 154 159 167 173 176 183
116 117 93 132 158 210 242 128 182 183 210 217 249 200 210 204 230 243 218 213 207 208 214 218 228 236 240 245 245 249 247 245 242 240 235 214 203 194 187 187 186 181 171 164 162 165 167 167 161 168 173 176 178 179